When you browse on this site, cookies collect data to enhance your experience and personalize the content and advertising you see.
Visit our Privacy Policy to learn more. By continuing to use the site, you agree to this use of cookies and data.
  • In Czech Republic
  • List of Countries
  • For 7 days
  • Water Temperature
  • Satellite Maps
  • Weather Map
  • Weather Widgets
  • user-avatar
    Login

    Hourly Weather Perth

    Today, 23 March, Saturday

    Time Temperature Precipitation Wind Pressure Humidity
    00:00 +20°C° 0 mm 6 mps 761 mmHg 69%
    01:00 +20°C° 0 mm 6 mps 761 mmHg 68%
    02:00 +19°C° 0 mm 5 mps 762 mmHg 67%
    03:00 +17°C° 0 mm 5 mps 762 mmHg 68%
    04:00 +16°C° 0 mm 5 mps 762 mmHg 68%
    05:00 +16°C° 0 mm 5 mps 762 mmHg 69%
    06:00 +16°C° 0 mm 6 mps 762 mmHg 66%
    07:00 +17°C° 0 mm 6 mps 762 mmHg 64%
    08:00 +17°C° 0 mm 6 mps 762 mmHg 61%
    09:00 +20°C° 0 mm 6 mps 762 mmHg 54%
    10:00 +22°C° 0 mm 5 mps 762 mmHg 47%
    11:00 +25°C° 0 mm 5 mps 762 mmHg 39%
    12:00 +26°C° 0 mm 5 mps 761 mmHg 36%
    13:00 +27°C° 0 mm 4 mps 761 mmHg 32%
    14:00 +28°C° 0 mm 4 mps 760 mmHg 28%
    15:00 +28°C° 0 mm 4 mps 760 mmHg 28%
    16:00 +28°C° 0 mm 4 mps 759 mmHg 29%
    17:00 +28°C° 0 mm 4 mps 759 mmHg 29%
    18:00 +26°C° 0 mm 4 mps 760 mmHg 33%
    19:00 +25°C° 0 mm 4 mps 760 mmHg 36%
    20:00 +22°C° 0 mm 4 mps 760 mmHg 40%
    21:00 +21°C° 0 mm 4 mps 761 mmHg 44%
    22:00 +20°C° 0 mm 4 mps 761 mmHg 48%
    23:00 +20°C° 0 mm 5 mps 761 mmHg 52%

    Tomorrow, 24 March, Sunday

    Time Temperature Precipitation Wind Pressure Humidity
    00:00 +19°C° 0 mm 4 mps 761 mmHg 54%
    01:00 +18°C° 0 mm 4 mps 761 mmHg 56%
    02:00 +18°C° 0 mm 4 mps 761 mmHg 58%
    03:00 +17°C° 0 mm 4 mps 761 mmHg 60%
    04:00 +15°C° 0 mm 4 mps 761 mmHg 62%
    05:00 +15°C° 0 mm 4 mps 761 mmHg 64%
    06:00 +15°C° 0 mm 4 mps 761 mmHg 62%
    07:00 +16°C° 0 mm 5 mps 761 mmHg 60%
    08:00 +16°C° 0 mm 5 mps 762 mmHg 59%
    09:00 +19°C° 0 mm 5 mps 762 mmHg 52%
    10:00 +21°C° 0 mm 4 mps 762 mmHg 45%
    11:00 +25°C° 0 mm 4 mps 761 mmHg 38%
    12:00 +26°C° 0 mm 4 mps 761 mmHg 36%
    13:00 +27°C° 0 mm 3 mps 760 mmHg 33%
    14:00 +28°C° 0 mm 3 mps 760 mmHg 31%
    15:00 +28°C° 0 mm 3 mps 760 mmHg 32%
    16:00 +28°C° 0 mm 4 mps 760 mmHg 33%
    17:00 +28°C° 0 mm 4 mps 759 mmHg 33%
    18:00 +26°C° 0 mm 5 mps 760 mmHg 37%
    19:00 +25°C° 0 mm 5 mps 761 mmHg 40%
    20:00 +22°C° 0 mm 6 mps 761 mmHg 43%
    21:00 +21°C° 0 mm 6 mps 762 mmHg 45%
    22:00 +20°C° 0 mm 6 mps 762 mmHg 47%
    23:00 +19°C° 0 mm 6 mps 763 mmHg 50%

    Day after tomorrow, 25 March, Monday

    Time Temperature Precipitation Wind Pressure Humidity
    00:00 +17°C° 0 mm 7 mps 763 mmHg 53%
    01:00 +16°C° 0 mm 7 mps 763 mmHg 56%
    02:00 +15°C° 0 mm 7 mps 763 mmHg 59%
    03:00 +15°C° 0 mm 7 mps 763 mmHg 60%
    04:00 +14°C° 0 mm 7 mps 763 mmHg 61%
    05:00 +14°C° 0 mm 7 mps 763 mmHg 63%
    06:00 +14°C° 0 mm 7 mps 764 mmHg 61%
    07:00 +15°C° 0 mm 7 mps 764 mmHg 59%
    08:00 +15°C° 0 mm 7 mps 765 mmHg 58%
    09:00 +17°C° 0 mm 7 mps 765 mmHg 50%
    10:00 +20°C° 0 mm 7 mps 765 mmHg 43%
    11:00 +22°C° 0 mm 6 mps 765 mmHg 36%
    12:00 +23°C° 0 mm 6 mps 764 mmHg 33%
    13:00 +26°C° 0 mm 6 mps 763 mmHg 30%
    14:00 +27°C° 0 mm 5 mps 762 mmHg 28%
    15:00 +27°C° 0 mm 5 mps 762 mmHg 28%
    16:00 +27°C° 0 mm 5 mps 762 mmHg 28%
    17:00 +27°C° 0 mm 5 mps 762 mmHg 28%
    18:00 +26°C° 0 mm 4 mps 762 mmHg 31%
    19:00 +23°C° 0 mm 4 mps 763 mmHg 33%
    20:00 +22°C° 0 mm 4 mps 763 mmHg 36%
    21:00 +22°C° 0 mm 4 mps 763 mmHg 36%
    22:00 +22°C° 0 mm 5 mps 763 mmHg 36%
    23:00 +22°C° 0 mm 5 mps 764 mmHg 37%

    26 March, Tuesday

    Time Temperature Precipitation Wind Pressure Humidity
    00:00 +21°C° 0 mm 5 mps 764 mmHg 38%
    01:00 +21°C° 0 mm 6 mps 763 mmHg 39%
    02:00 +20°C° 0 mm 6 mps 763 mmHg 41%
    03:00 +20°C° 0 mm 6 mps 763 mmHg 44%
    04:00 +19°C° 0 mm 6 mps 763 mmHg 46%
    05:00 +19°C° 0 mm 6 mps 763 mmHg 49%
    06:00 +19°C° 0 mm 6 mps 763 mmHg 48%
    07:00 +20°C° 0 mm 6 mps 764 mmHg 47%
    08:00 +20°C° 0 mm 6 mps 764 mmHg 46%
    09:00 +22°C° 0 mm 6 mps 764 mmHg 42%
    10:00 +25°C° 0 mm 5 mps 764 mmHg 37%
    11:00 +27°C° 0 mm 5 mps 763 mmHg 33%
    12:00 +28°C° 0 mm 4 mps 763 mmHg 31%
    13:00 +30°C° 0 mm 4 mps 762 mmHg 28%
    14:00 +31°C° 0 mm 3 mps 761 mmHg 26%
    15:00 +31°C° 0 mm 3 mps 761 mmHg 25%
    16:00 +31°C° 0 mm 2 mps 761 mmHg 24%
    17:00 +31°C° 0 mm 2 mps 760 mmHg 24%
    18:00 +29°C° 0 mm 2 mps 761 mmHg 27%
    19:00 +27°C° 0 mm 3 mps 761 mmHg 31%
    20:00 +25°C° 0 mm 3 mps 761 mmHg 34%
    21:00 +25°C° 0 mm 3 mps 761 mmHg 34%
    22:00 +24°C° 0 mm 3 mps 761 mmHg 33%
    23:00 +24°C° 0 mm 3 mps 761 mmHg 32%

    27 March, Wednesday

    Time Temperature Precipitation Wind Pressure Humidity
    00:00 +24°C° 0 mm 3 mps 761 mmHg 33%
    01:00 +22°C° 0 mm 3 mps 761 mmHg 33%
    02:00 +22°C° 0 mm 3 mps 760 mmHg 33%
    03:00 +22°C° 0 mm 3 mps 760 mmHg 34%
    04:00 +24°C° 0 mm 3 mps 760 mmHg 35%
    05:00 +24°C° 0 mm 3 mps 760 mmHg 35%
    06:00 +24°C° 0 mm 3 mps 761 mmHg 35%
    07:00 +25°C° 0 mm 3 mps 761 mmHg 35%
    08:00 +26°C° 0 mm 3 mps 761 mmHg 35%
    09:00 +29°C° 0 mm 2 mps 761 mmHg 33%
    10:00 +31°C° 0 mm 2 mps 761 mmHg 31%
    11:00 +34°C° 0 mm 1 mps 761 mmHg 29%
    12:00 +35°C° 0 mm 2 mps 760 mmHg 28%
    13:00 +36°C° 0 mm 3 mps 760 mmHg 28%
    14:00 +36°C° 0 mm 3 mps 759 mmHg 27%
    15:00 +35°C° 0 mm 4 mps 759 mmHg 28%
    16:00 +34°C° 0 mm 4 mps 759 mmHg 29%
    17:00 +34°C° 0 mm 5 mps 759 mmHg 30%
    18:00 +32°C° 0 mm 4 mps 759 mmHg 33%
    19:00 +29°C° 0 mm 4 mps 760 mmHg 35%
    20:00 +28°C° 0 mm 4 mps 760 mmHg 38%
    21:00 +28°C° 0 mm 4 mps 760 mmHg 35%
    22:00 +28°C° 0 mm 4 mps 760 mmHg 32%
    23:00 +27°C° 0 mm 5 mps 761 mmHg 29%

    28 March, Thursday

    Time Temperature Precipitation Wind Pressure Humidity
    00:00 +27°C° 0 mm 5 mps 761 mmHg 36%
    01:00 +26°C° 0 mm 5 mps 761 mmHg 42%
    02:00 +25°C° 0 mm 5 mps 760 mmHg 49%
    03:00 +23°C° 0 mm 5 mps 761 mmHg 52%
    04:00 +23°C° 0 mm 5 mps 761 mmHg 56%
    05:00 +22°C° 0 mm 5 mps 761 mmHg 59%
    06:00 +22°C° 0 mm 5 mps 761 mmHg 59%
    07:00 +22°C° 0 mm 5 mps 762 mmHg 60%
    08:00 +22°C° 0 mm 5 mps 762 mmHg 60%
    09:00 +25°C° 0 mm 5 mps 762 mmHg 54%
    10:00 +27°C° 0 mm 5 mps 762 mmHg 48%
    11:00 +29°C° 0 mm 5 mps 762 mmHg 42%
    12:00 +30°C° 0 mm 5 mps 761 mmHg 39%
    13:00 +32°C° 0 mm 5 mps 761 mmHg 35%
    14:00 +34°C° 0 mm 4 mps 760 mmHg 32%
    15:00 +33°C° 0 mm 5 mps 760 mmHg 32%
    16:00 +33°C° 0 mm 5 mps 760 mmHg 33%
    17:00 +33°C° 0 mm 6 mps 760 mmHg 33%
    18:00 +30°C° 0 mm 6 mps 761 mmHg 37%
    19:00 +28°C° 0 mm 7 mps 762 mmHg 40%
    20:00 +26°C° 0 mm 8 mps 762 mmHg 44%
    21:00 +24°C° 0 mm 8 mps 763 mmHg 48%
    22:00 +22°C° 0 mm 8 mps 763 mmHg 53%
    23:00 +21°C° 0 mm 9 mps 764 mmHg 57%
    Show more